Regional Weather Roundup
Issued by NWS Charleston, SC

Current Version | Previous Version | Graphics & Text | Print | Product List | Glossary Off
Versions: 1 2 3 4 5 6 7 8 9 10 11 12 13 14 15 16 17 18 19 20 21 22 23 24 25 26 27 28 29 30 31 32 33 34 35 36 37 38 39 40 41 42 43 44 45 46 47 48 49 50

000
ASUS42 KCHS 180610
RWRCHS
REGIONAL WEATHER ROUNDUP
NATIONAL WEATHER SERVICE CHARLESTON SC
100 AM EST THU DEC 18 2014

NOTE: "FAIR" INDICATES FEW OR NO CLOUDS BELOW 12,000 FEET WITH NO
SIGNIFICANT WEATHER AND/OR OBSTRUCTIONS TO VISIBILITY.

NOT ALL STATIONS ARE QUALITY CONTROLLED BY THE NATIONAL
WEATHER SERVICE. USE DATA WITH CAUTION...ESPECIALLY
DEWPOINT OBSERVATIONS.

SCZ027-030-031-034>040-042>050-180700-
...SOUTHEAST SOUTH CAROLINA...

CITY           SKY/WX    TMP DP  RH WIND       PRES   REMARKS
N CHARLESTON   PTCLDY    42  40  92 CALM      30.10F
6HR MIN TEMP:  42; 6HR MAX TEMP:  52;

WATERFRONT PRK NOT AVBL
MOUNT PLEASANT LGT RAIN  39  39 100 CALM      30.09F
PINOPOLIS        N/A     48  45  87 VRB2      30.01F
MONCKS CORNER  FAIR      39  36  87 CALM      30.10S
SUMMERVILLE    NOT AVBL
BEAUFORT MCAS  PTCLDY    40  39  97 SW5       30.11F WCI  37
6HR MIN TEMP:  40; 6HR MAX TEMP:  51;

BEAUFORT ARPT  FAIR      43  43 100 CALM      30.10F
HILTON HEAD IS PTCLDY    43  43 100 CALM      30.12F
WALTERBORO     CLEAR     37 N/A N/A CALM      30.11S
ALLENDALE      FAIR      39  39 100 CALM      30.10S

...SOUTHERN MIDLANDS AND PEE DEE...

CITY           SKY/WX    TMP DP  RH WIND       PRES   REMARKS
GEORGETOWN     NOT AVBL
KINGSTREE      NOT AVBL
ORANGEBURG     CLEAR     39  36  89 CALM      30.09F
6HR MIN TEMP:  39; 6HR MAX TEMP:  49;

BARNWELL         N/A     36  34  93 CALM      30.10F
AIKEN          FAIR      39  39 100 CALM      30.12F
MANNING        NOT AVBL
COLUMBIA       PTCLDY    37  33  85 SW3       30.09S
6HR MIN TEMP:  36; 6HR MAX TEMP:  49;

SUMTER         CLEAR     38  35  90 S2        30.08R
6HR MIN TEMP:  38; 6HR MAX TEMP:  52;

FLORENCE       CLEAR     39  37  92 W3        30.09R
6HR MIN TEMP:  39; 6HR MAX TEMP:  49;

MYRTLE BEACH   CLEAR     43  37  81 W5        30.09F
N MYRTLE BEACH CLEAR     44  41  89 CALM      30.08F
6HR MIN TEMP:  41; 6HR MAX TEMP:  49;


$$

GAZ063-065-086>088-099>101-113>116-118-119-134>141-150-180700-
...SOUTHEAST GEORGIA...

CITY           SKY/WX    TMP DP  RH WIND       PRES   REMARKS
SAVANNAH ARPT  PTCLDY    45  39  79 CALM      30.12F
6HR MIN TEMP:  45; 6HR MAX TEMP:  53;

HUNTER AAF     PTCLDY    42  41  95 CALM      30.10F
6HR MIN TEMP:  42; 6HR MAX TEMP:  51;

FORT STEWART   CLEAR     40  38  94 CALM      30.11F
6HR MIN TEMP:  40; 6HR MAX TEMP:  48;

STATESBORO     CLEAR     36  36 100 CALM      30.12S
SYLVANIA       CLEAR     38  38 100 CALM      30.12S
CLAXTON        FAIR      36  36 100 CALM      30.13S

...CSRA...CENTRAL AND FAR SOUTHEAST GEORGIA...

CITY           SKY/WX    TMP DP  RH WIND       PRES   REMARKS
THOMSON        PTCLDY    36  36 100 CALM      30.15S
AUGUSTA-BUSH   CLEAR     34  33  96 CALM      30.10F
6HR MIN TEMP:  34; 6HR MAX TEMP:  46;

AUGUSTA-DANIEL CLEAR     44  38  79 NW3       30.10F
SWAINSBORO     FAIR      39  39 100 CALM      30.12F
VIDALIA        CLEAR     43  39  87 NW3       30.13F
EASTMAN          N/A     37  37 100 CALM      30.16F FOG
HAZLEHURST     FAIR      43  43 100 W3        30.13S
ALMA           MOCLDY    40  38  93 CALM      30.13F
6HR MIN TEMP:  39; 6HR MAX TEMP:  49;

WAYCROSS       MOCLDY    48  45  88 CALM      30.13F
JESUP          FAIR      41  39  93 CALM      30.13S
BAXLEY         FAIR      41  39  93 CALM      30.12F
BRUNSWICK      MOCLDY    43  43 100 CALM      30.14S
SAINT SIMONS   MOCLDY    47  43  86 SW5       30.13S
6HR MIN TEMP:  46; 6HR MAX TEMP:  53;


$$

SCZ027-028-034-036>038-045-046-048>050-GAZ119-141-180700-
...LAKE AND SUPPLEMENTAL COASTAL OBSERVATIONS...

STATION/POSITION TIME  TEMP    WIND        PRES    WAVE   SWELL
                       AIR SEA DIR/SP/G            HT/PER HT/PER/DIR
                 (UTC) (F)     (DEG/KT/KT) (MB)    (FT/S) (FT/S/D)
UPR LAKE MARION  NOT AVBL
WINYAH BAY       0500   47     260/  2     1018.0S
LAKE MURRAY      0500   47     280/  5/  7 1018.6S
ACE BASIN NERRS  0500   43        CALM     1019.0S
FORT PULASKI     0600   48 56  230/  4/  5 1020.1S
SAPELO ISLAND    0500   48     200/  3     1020.0S

$$

ANZ835-935-AMZ111-154-330-350-352-354-370-450-454-472-180700-
...C-MAN AND BUOY OBSERVATIONS...

STATION/POSITION TIME  TEMP    WIND        PRES    WAVE   SWELL
                       AIR SEA DIR/SP/G            HT/PER HT/PER/DIR
                 (UTC) (F)     (DEG/KT/KT) (MB)    (FT/S) (FT/S/D)
BUOY 41004       0600   61 73  280/  8/ 12 1018.9F   2/11   2/11
BUOY 41008       0600   57 57  280/  8/ 10 1019.9F   1/10   2/100/10
FOLLY BEACH CMAN 0500   49     260/  5/  6 1020.1F
CAPERS NEARSHORE 0500   54     270/  8/  8   N/A
FRIPP NEARSHORE  NOT AVBL


STATION/POSITION TIME  TEMP    WIND        PRES    WAVE   SWELL
                       AIR SEA DIR/SP/G            HT/PER HT/PER/DIR
                 (UTC) (F)     (DEG/KT/KT) (MB)    (FT/S) (FT/S/D)
5E ST. MARYS GA  0600      61                N/A     1/10
FRYING PAN BUOY  0600   59 65  280/ 10/ 12 1019.1F   2/ 9   2/ 90/ 9
BUOY 41025       0600   57                 1017.4F   3/ 4
CAPE LOOKOUT NC  0500   55     260/  7/  8 1018.0F
BUOY 41002       0525   68 72  260/  8/ 12 1018.5F   5/ 7   5/300/ 7
BUOY 41010       0600   69 76  280/  8/ 12 1020.1F   3/10   2/ 40/10
ST AUGUSTINE FL  0600   53     280/  7/  7 1020.9F


$$



USA.gov is the U.S. government's official web portal to all federal, state and local government web resources and services.